Burlington, WA
on Friday, January 4, 2013

Friday
Previous Day Next Day
Daily Summary
 ActualAverage (KBLI)Record (KBLI)
Temperature
Mean Temperature °F 38°F  
Max Temperature 44°F 44°F 60°F (2012)
Min Temperature 39°F 32°F 5°F (1950)
Degree Days
Heating Degree Days 24 27  
Month to date heating degree days 108  
Cooling Degree Days 0 0  
Month to date cooling degree days 0  
Year to date cooling degree days 0  
Moisture
Dew Point 43°F   
Average Humidity 100    
Maximum Humidity 100    
Minimum Humidity 93    
Precipitation
Precipitation 0.00 in 0.14 in 1.04 in (1984)
Month to date precipitation 0.56  
Year to date precipitation 0.56  
Wind
Wind Speed 7 mph   
Max Wind Speed 13 mph   
Max Gust Speed 22 mph   
Visibility 8 miles   
Events     

Key: T is trace of precipitation, MM is missing value
Source: NWS Daily Summary
Time(PST)TemperatureDew PointHumidity Pressure Visibility Wind DirectionWind SpeedGust SpeedPrecipitationEvents Conditions
12:15 AM 39.2°F 39.2°F 100% 30.14 in 10.0 miles SSE 3.5 mph - 0.00 in   Overcast
12:55 AM 44.6°F 42.8°F 93% 30.15 in 10.0 miles SSE 6.9 mph - 0.00 in   Overcast
1:15 AM 44.6°F 42.8°F 93% 30.15 in 9.0 miles SSE 10.4 mph 21.9 mph 0.00 in   Overcast
3:55 AM 42.8°F 42.8°F 100% 30.22 in 10.0 miles SSE 9.2 mph 19.6 mph 0.00 in   Overcast
4:15 AM 42.8°F 42.8°F 100% 30.22 in 10.0 miles SSE 9.2 mph - 0.00 in   Overcast
4:35 AM 42.8°F 42.8°F 100% 30.23 in 10.0 miles SSE 9.2 mph - 0.00 in   Overcast
4:55 AM 42.8°F 42.8°F 100% 30.23 in 10.0 miles SSE 11.5 mph - 0.00 in   Overcast
5:15 AM 42.8°F 42.8°F 100% 30.24 in 10.0 miles SSE 11.5 mph - 0.00 in   Overcast
5:35 AM 42.8°F 42.8°F 100% 30.24 in 9.0 miles SE 9.2 mph - 0.00 in   Overcast
5:55 AM 42.8°F 42.8°F 100% 30.24 in 9.0 miles SE 10.4 mph - 0.00 in   Overcast
6:15 AM 44.6°F 44.6°F 100% 30.25 in 10.0 miles SSE 9.2 mph - 0.00 in   Overcast
6:35 AM 44.6°F 44.6°F 100% 30.26 in 10.0 miles SSE 9.2 mph - 0.00 in   Overcast
6:55 AM 44.6°F 44.6°F 100% 30.26 in 9.0 miles SSE 6.9 mph - 0.00 in   Overcast
7:15 AM 44.6°F 44.6°F 100% 30.26 in 9.0 miles SE 5.8 mph - 0.00 in   Overcast
7:35 AM 44.6°F 44.6°F 100% 30.26 in 7.0 miles SE 9.2 mph - 0.00 in   Overcast
7:55 AM 44.6°F 44.6°F 100% 30.27 in 7.0 miles SE 8.1 mph - 0.00 in   Overcast
8:15 AM 44.6°F 44.6°F 100% 30.27 in 7.0 miles SE 5.8 mph - 0.00 in   Overcast
8:35 AM 44.6°F 44.6°F 100% 30.28 in 5.0 miles SE 4.6 mph - 0.00 in   Overcast
8:55 AM 44.6°F 44.6°F 100% 30.29 in 4.0 miles East 3.5 mph - 0.00 in   Overcast
9:15 AM 42.8°F 42.8°F 100% 30.30 in 5.0 miles NE 4.6 mph - 0.00 in   Overcast
9:35 AM 41.0°F 41.0°F 100% 30.30 in 2.5 miles NE 6.9 mph - 0.00 in   Overcast
9:55 AM 41.0°F 41.0°F 100% 30.30 in 2.5 miles NE 5.8 mph - 0.00 in   Overcast
10:15 AM 41.0°F 41.0°F 100% 30.31 in 1.5 miles NE 8.1 mph - 0.00 in   Overcast
10:55 AM 42.8°F 42.8°F 100% 30.31 in 1.5 miles East 4.6 mph - 0.00 in   Overcast
11:15 AM 42.8°F 42.8°F 100% 30.31 in 3.0 miles Calm Calm - 0.00 in   Overcast
11:35 AM 42.8°F 42.8°F 100% 30.31 in 2.5 miles ENE 3.5 mph - 0.00 in   Overcast
11:55 AM 42.8°F 42.8°F 100% 30.30 in 3.0 miles ENE 3.5 mph - 0.00 in   Overcast
12:15 PM 42.8°F 42.8°F 100% 30.30 in 3.0 miles NE 3.5 mph - 0.00 in   Overcast
12:35 PM 42.8°F 42.8°F 100% 30.30 in 3.0 miles North 4.6 mph - 0.00 in   Overcast
12:55 PM 42.8°F 42.8°F 100% 30.30 in 5.0 miles NE 4.6 mph - 0.00 in   Overcast
1:15 PM 42.8°F 42.8°F 100% 30.29 in 5.0 miles ENE 4.6 mph - 0.00 in   Overcast
1:35 PM 42.8°F 42.8°F 100% 30.29 in 4.0 miles East 3.5 mph - 0.00 in   Overcast
2:15 PM 44.6°F 44.6°F 100% 30.29 in 7.0 miles Calm Calm - 0.00 in   Overcast
2:35 PM 44.6°F 44.6°F 100% 30.28 in 8.0 miles Calm Calm - 0.00 in   Overcast
2:55 PM 44.6°F 44.6°F 100% 30.28 in 7.0 miles ENE 3.5 mph - 0.00 in   Overcast
3:15 PM 44.6°F 44.6°F 100% 30.28 in 8.0 miles NE 4.6 mph - 0.00 in   Overcast
3:35 PM 44.6°F 44.6°F 100% 30.27 in 8.0 miles ENE 6.9 mph - 0.00 in   Overcast
3:55 PM 44.6°F 44.6°F 100% 30.27 in 7.0 miles ENE 3.5 mph - 0.00 in   Overcast
4:15 PM 44.6°F 44.6°F 100% 30.27 in 8.0 miles Calm Calm - 0.00 in   Overcast
5:15 PM 42.8°F 42.8°F 100% 30.27 in 9.0 miles Calm Calm - 0.00 in   Overcast
5:35 PM 44.6°F 44.6°F 100% 30.26 in 10.0 miles NE 6.9 mph - 0.00 in   Overcast
6:35 PM 42.8°F 42.8°F 100% 30.23 in 10.0 miles NNE 6.9 mph - 0.00 in   Clear
7:15 PM 42.8°F 42.8°F 100% 30.24 in 10.0 miles NNE 6.9 mph - 0.00 in   Clear
7:35 PM 42.8°F 42.8°F 100% 30.23 in 10.0 miles NNE 5.8 mph - 0.00 in   Clear
7:55 PM 41.0°F 41.0°F 100% 30.23 in 9.0 miles NNW 4.6 mph - 0.00 in   Clear
8:15 PM 39.2°F 39.2°F 100% 30.22 in 6.0 miles NNE 5.8 mph - 0.00 in   Scattered Clouds
8:35 PM 41.0°F 41.0°F 100% 30.21 in 9.0 miles NE 9.2 mph - 0.00 in   Partly Cloudy
8:55 PM 41.0°F 41.0°F 100% 30.20 in 10.0 miles NE 11.5 mph - 0.00 in   Clear
9:15 PM 41.0°F 41.0°F 100% 30.21 in 10.0 miles NE 9.2 mph - 0.00 in   Clear
9:35 PM 39.2°F 39.2°F 100% 30.20 in 10.0 miles NE 10.4 mph - 0.00 in   Clear
9:55 PM 41.0°F 41.0°F 100% 30.20 in 10.0 miles NE 9.2 mph - 0.00 in   Partly Cloudy
10:15 PM 42.8°F 42.8°F 100% 30.20 in 10.0 miles ENE 11.5 mph - 0.00 in   Scattered Clouds
10:55 PM 42.8°F 42.8°F 100% 30.19 in 10.0 miles ENE 11.5 mph - 0.00 in   Partly Cloudy
11:15 PM 42.8°F 42.8°F 100% 30.19 in 10.0 miles ENE 12.7 mph - 0.00 in   Scattered Clouds
11:35 PM 42.8°F 41.0°F 93% 30.19 in 10.0 miles ENE 8.1 mph - 0.00 in   Mostly Cloudy
11:55 PM 42.8°F 41.0°F 93% 30.19 in 10.0 miles ENE 8.1 mph - 0.00 in   Overcast
Moon Phase
Jan. 04 Jan. 04 Jan. 11 Jan. 18 Jan. 26
Sunrise:08:01 AM (PST) Moon Rise:No Moon Rise/
Sunset:04:28 PM (PST) Moon Set:11:08 AM (PST)1/4

Copyright © 2014 The Weather Underground, Inc.